Location: Bukit Lungun
(2.6833°N, 113.9667°E)
Time: 13:48:49
(UTC+00:00)

SL-08 R/B - Pass Details

Date: 02 March 2021
Orbit: 949 x 1019 km, 82.9° (Epoch: 21 April)

Event Time Altitude Azimuth Distance (km) Brightness Sun altitude
Rises 12:26:23 0° 182° (S) 3,680 7.6 -27.7°
Reaches altitude 10° 12:28:53 10° 182° (S) 2,741 6.9 -28.3°
Enters shadow 12:34:59 83° 146° (SE) 1,007 4.4 -29.8°
